Temperature
18 18 18 18 18 17 17 17 17 17 17 17 17 17 17 17 17 17 16 16 16 16 16 16 15 15 15 15 15 15 15 15 15 15 15 15 15 15 15 15 15 15 15
17 17 17 18 17 17 17 17 17 17 17 17 17 17 17 17 17 16 16 16 16 16 16 15 15 15 15 15 15 15 15 15 15 15 15 15 15 15 15 15 15 15 15
17 17 17 17 17 17 17 17 17 17 17 17 17 17 17 17 16 16 16 16 16 16 16 15 15 15 15 15 15 15 15 15 15 15 15 15 15 15 15 15 15 15 15
17 17 17 17 17 17 17 17 17 17 17 17 17 17 17 17 17 16 16 16 16 15 15 15 15 15 15 15 15 15 15 15 15 15 15 15 15 15 15 15 15 15 15
18 18 18 17 17 17 17 17 17 16 17 17 17 17 17 17 17 16 16 16 16 15 15 15 15 15 15 15 15 15 15 15 15 15 15 15 15 15 15 15 15 15 15
18 18 18 17 17 17 17 17 17 16 17 17 17 17 17 17 17 17 16 16 16 15 15 15 15 15 15 15 15 15 15 15 15 15 15 15 15 15 15 15 15 15 15
18 17 17 17 17 17 17 17 17 17 17 17 17 17 17 17 17 17 16 16 16 16 15 15 15 15 15 15 15 15 15 15 15 15 15 15 15 15 15 15 15 15 15
18 18 18 18 18 17 17 17 17 17 17 17 17 17 17 17 17 17 16 16 16 16 16 15 15 15 15 15 15 15 15 15 15 15 15 15 15 15 15 15 15 15 15
18 18 18 18 18 18 17 17 17 17 17 17 17 17 17 17 16 16 16 16 16 16 16 16 15 15 15 15 15 15 15 15 15 15 14 14 14 14 14 15 15 14 14
19 19 19 18 18 18 18 17 17 17 17 17 17 17 17 17 16 16 16 16 16 16 16 16 15 15 15 15 15 15 15 15 15 14 14 14 14 14 14 14 14 14 14
19 19 19 19 18 18 18 18 17 17 17 17 17 17 17 17 17 16 16 16 16 16 16 16 16 15 15 15 15 15 15 15 15 14 14 14 14 14 14 14 14 14 14
19 19 19 19 19 18 18 18 17 17 17 17 17 17 17 16 16 16 16 16 16 16 16 16 16 16 15 15 15 15 15 15 15 15 14 14 14 14 14 14 14 14 14
19 19 19 19 19 19 18 18 18 18 17 17 17 17 17 16 17 17 17 16 16 16 16 16 16 16 16 15 15 15 15 15 15 15 14 14 14 14 14 14 14 14 14
19 19 19 19 19 19 18 18 18 18 18 17 17 17 17 17 17 17 17 16 16 16 16 16 16 16 16 15 15 15 15 15 15 14 14 14 14 14 14 14 14 14 14
19 19 19 19 19 19 19 18 18 18 17 17 17 17 17 17 17 17 16 16 16 16 16 16 16 16 16 16 15 15 15 15 15 14 14 14 14 14 14 14 14 13 13
19 19 19 19 19 19 18 18 18 18 18 17 17 17 17 17 17 16 16 16 16 16 16 16 16 16 15 15 15 15 15 15 14 14 14 14 14 14 14 13 13 13 13
18 18 18 18 18 18 18 18 18 18 17 17 17 17 16 16 16 16 16 16 16 16 15 15 15 15 15 15 14 14 14 14 14 13 13 13 13 13 13 13 13 13 12
18 18 18 18 18 18 18 17 17 17 17 17 16 16 16 16 16 15 15 15 15 15 15 14 14 14 14 14 14 13 13 13 13 13 13 12 12 12 12 12 12 12 12
17 17 17 17 17 17 17 17 16 16 16 16 16 15 15 15 15 15 15 14 14 14 14 14 13 13 13 13 13 13 12 12 12 12 11 11 11 11 11 11 11 11 11
17 16 16 16 16 16 16 16 16 15 15 15 14 14 14 14 14 14 14 13 13 13 13 12 12 12 12 12 12 11 11 11 11 11 10 10 10 10 10 10 10 10 10
15 15 16 15 15 15 15 15 15 14 14 14 14 13 13 13 13 13 13 12 12 12 12 11 11 11 11 11 11 10 10 10 10 10 9 9 9 9 9 9 9 9 9
14 15 15 14 14 14 14 14 13 13 13 13 13 12 12 12 12 12 12 11 11 11 11 11 10 10 10 9 9 9 9 9 9 9 9 9 8 8 8 8 8 8 7
13 13 14 13 13 13 13 13 12 12 12 12 12 12 12 11 11 11 11 11 10 10 10 9 9 9 9 8 8 8 8 8 8 8 7 7 7 7 7 7 6 6 6
12 12 13 12 12 12 12 12 11 11 11 11 11 11 11 11 10 10 10 10 9 9 9 9 8 8 8 8 8 7 7 7 7 7 7 6 6 6 6 6 6 5 5
12 12 12 11 11 11 11 11 11 11 11 11 10 10 10 10 10 10 9 9 9 8 8 8 7 7 7 7 6 6 6 6 6 5 5 5 5 5 5 5 5 5 5
11 11 11 11 11 11 11 10 10 10 11 10 10 10 9 9 9 9 8 8 8 7 7 7 6 6 6 5 5 5 5 5 5 4 4 4 4 4 4 4 4 4 4
Wind_Speed
5 5 7 7 7 8 8 8 8 8 8 6 5 5 4 3 3 3 6 7 8 9 8 5 5 4 4 3 4 3 4 3 2 3 3 3 3 3 3 2 2 1 1
5 6 6 7 8 9 9 9 9 9 9 7 5 4 4 3 3 2 4 6 8 8 7 6 5 4 4 4 3 3 3 2 2 2 3 2 3 3 3 2 2 2 2
10 9 8 7 8 9 10 10 10 9 8 7 6 5 5 4 3 2 2 3 6 7 8 8 6 5 4 4 3 4 4 3 2 1 3 3 2 2 2 2 2 2 1
7 8 8 8 9 9 8 9 9 8 8 9 9 9 6 5 5 4 3 3 5 6 8 8 7 5 4 4 3 3 3 4 2 1 2 1 2 2 0 2 2 2 1
9 9 9 8 8 8 9 8 9 8 8 9 11 10 6 5 4 4 5 3 2 4 6 7 6 5 4 4 4 3 3 3 3 2 2 2 2 1 2 1 2 2 2
9 7 6 6 6 6 7 8 10 9 9 10 10 10 9 8 7 6 6 4 2 2 4 6 6 5 4 4 4 3 4 3 3 2 2 3 2 2 2 2 1 1 2
9 9 8 8 7 7 8 9 10 10 9 10 10 10 10 10 9 8 7 6 4 3 5 5 5 4 4 5 4 4 3 3 3 3 2 2 2 2 3 2 1 1 2
9 9 10 9 9 8 9 9 10 10 10 10 9 9 9 7 6 7 7 7 6 5 5 6 6 6 6 6 5 3 3 3 3 3 3 2 2 2 2 3 3 1 1
10 10 9 9 8 9 9 10 10 9 10 10 9 9 8 8 8 7 6 5 5 4 6 6 6 6 6 6 5 4 4 4 3 3 3 2 2 2 2 2 3 3 2
9 9 9 8 8 8 8 8 9 9 8 9 9 9 8 8 8 7 7 7 6 5 6 7 7 6 6 6 6 4 4 5 4 3 4 3 2 2 2 2 2 2 3
9 9 8 8 8 7 8 8 8 8 8 9 8 8 8 8 7 7 7 7 6 7 7 7 7 7 7 7 7 6 6 6 5 5 5 5 4 3 3 3 3 3 3
7 7 8 8 8 8 9 9 9 9 9 9 8 8 7 7 7 7 6 6 7 7 7 7 7 7 8 8 8 8 8 8 8 7 7 7 5 5 5 4 5 4 5
6 6 6 7 8 8 9 9 9 9 8 8 8 8 7 7 7 7 5 5 6 5 6 6 7 7 7 8 8 9 8 9 9 8 8 8 7 7 6 6 6 5 6
7 6 6 6 6 6 7 8 8 8 8 8 9 8 7 7 6 5 5 5 5 5 5 6 7 7 7 7 8 8 8 8 8 8 9 8 8 9 8 7 8 7 6
7 7 6 5 5 5 6 6 7 7 8 9 8 7 6 5 5 4 4 4 4 4 4 4 4 4 4 5 7 7 8 7 7 7 7 8 8 9 8 7 7 7 6
7 7 7 7 6 6 6 6 6 6 7 7 6 5 5 5 4 3 3 3 3 2 3 3 2 2 1 3 5 6 5 5 5 6 5 5 5 6 7 8 8 7 7
7 7 7 6 6 6 6 7 6 6 7 6 6 6 6 5 4 4 4 3 3 3 3 3 3 2 2 2 1 1 1 1 1 2 1 1 1 1 2 4 4 4 6
8 7 6 6 5 6 6 7 8 8 8 8 7 6 6 6 5 5 4 4 3 4 3 4 4 4 5 5 5 5 4 4 3 3 2 2 3 4 3 3 3 4 4
8 7 6 7 7 8 9 11 11 10 10 9 8 7 7 7 7 6 5 5 5 6 6 5 6 6 6 8 7 6 4 4 4 4 5 4 3 5 5 3 4 5 5
10 10 10 10 10 9 11 13 12 11 10 9 8 8 8 8 8 7 6 6 7 7 8 8 8 8 7 9 9 6 4 3 3 3 3 4 3 5 5 3 3 6 7
11 12 12 10 9 9 12 14 12 10 8 9 10 10 9 9 8 8 7 7 8 8 8 8 7 7 8 9 10 9 5 3 2 2 3 3 6 6 6 4 4 6 8
12 13 13 11 9 9 13 14 11 8 9 10 11 10 8 8 8 9 8 7 8 8 7 7 6 5 6 7 8 9 7 4 2 2 3 4 7 7 7 5 6 9 7
12 11 13 13 11 9 11 13 8 8 10 12 11 9 9 9 8 8 8 7 6 6 5 4 4 4 4 5 8 8 8 7 3 3 5 6 7 7 6 7 8 7 5
12 12 13 14 11 10 10 10 8 9 11 11 9 8 8 8 8 7 6 6 5 5 4 4 3 2 3 4 5 5 5 6 5 4 6 7 7 6 6 7 6 5 5
11 11 12 13 11 10 10 8 8 10 11 9 8 7 7 7 7 7 6 5 4 3 4 2 2 2 3 4 6 5 5 5 4 4 3 4 5 7 7 7 7 7 7
11 12 12 12 10 10 10 8 6 8 10 8 7 6 5 6 6 7 7 11 8 9 8 6 4 3 3 5 8 8 8 8 7 4 4 5 6 7 8 8 9 8 8
Wind_Direction
183 168 170 169 165 165 162 162 158 159 152 147 146 144 148 140 130 135 143 144 143 144 135 126 121 124 123 127 124 106 87 64 56 79 41 17 28 42 34 20 20 12 349
175 179 178 172 175 175 171 163 165 164 166 162 153 144 132 129 124 123 129 143 144 146 142 136 135 131 122 113 115 120 110 72 52 109 93 29 358 2 14 13 21 7 8
185 184 185 188 182 181 178 173 168 166 163 149 130 117 96 88 102 122 130 145 152 149 143 145 141 139 134 135 134 133 131 128 65 68 135 144 211 304 341 5 13 4 7
186 183 184 185 186 183 173 169 167 163 160 153 153 156 157 160 173 161 152 144 148 148 148 148 145 143 139 140 143 133 132 134 133 86 61 107 147 150 328 335 349 353 350
189 187 186 186 185 176 170 171 168 166 166 163 165 163 158 153 141 138 143 142 131 145 152 152 147 144 145 147 137 131 132 132 146 151 136 108 78 96 146 239 321 339 324
190 184 175 169 174 170 170 168 167 169 169 167 169 168 162 154 149 154 157 153 145 149 162 159 156 155 152 155 152 146 139 136 137 145 151 157 158 168 158 180 235 284 305
184 177 171 173 175 174 178 176 173 174 173 172 175 172 168 165 167 169 171 165 170 186 190 171 168 169 173 167 156 152 153 152 151 159 162 168 169 155 153 153 173 245 300
185 182 180 179 178 178 178 174 176 179 177 177 177 170 168 170 174 175 173 179 188 193 184 182 185 185 180 174 165 162 171 168 170 174 169 169 176 170 168 162 153 162 303
184 184 181 179 177 178 181 177 175 176 177 178 171 171 172 174 177 178 178 183 188 187 183 186 190 192 188 182 171 181 189 180 190 190 188 192 198 188 186 173 166 162 210
180 183 183 182 181 179 174 169 171 175 173 175 176 181 178 180 178 173 182 189 193 189 183 191 195 196 196 190 184 189 195 191 202 200 198 208 215 205 194 190 186 180 184
182 185 184 182 174 166 166 171 173 169 170 176 177 175 176 178 175 184 194 195 197 195 197 199 198 201 203 198 197 206 198 203 212 210 210 221 210 210 206 195 192 194 188
178 176 175 170 169 172 174 177 177 178 178 174 172 176 172 173 180 193 198 195 202 204 204 200 202 208 208 203 205 214 211 212 219 221 218 228 219 219 217 209 211 212 208
164 161 160 167 175 178 177 178 180 182 173 166 171 175 177 181 187 194 194 192 200 204 201 197 207 214 213 210 213 216 217 218 223 223 222 229 221 229 227 223 225 226 222
157 158 162 165 169 170 171 173 176 172 167 167 172 182 187 186 187 189 186 192 196 199 204 207 213 218 216 216 218 218 222 225 229 230 230 232 227 233 234 233 234 233 233
155 162 162 157 152 153 159 166 169 169 169 169 175 182 177 172 174 177 184 188 193 205 203 203 210 215 215 223 219 219 224 226 233 237 237 239 236 237 236 239 239 233 239
158 157 152 150 156 160 160 156 156 158 156 160 167 159 151 150 154 156 156 153 152 152 149 167 169 173 229 255 225 217 229 232 236 243 244 244 247 253 247 246 241 230 238
144 144 145 147 150 152 151 151 141 129 132 137 135 137 137 133 135 136 127 124 117 108 105 102 105 90 28 16 35 152 177 223 251 253 260 276 348 332 295 287 281 269 261
130 128 122 118 114 114 119 118 115 117 116 110 108 114 121 121 118 114 108 100 99 98 93 81 84 76 48 57 76 84 85 72 57 52 57 60 32 19 3 343 338 325 313
115 110 107 105 102 107 113 109 104 103 103 102 102 102 106 105 99 97 94 93 92 84 78 74 72 71 49 46 61 79 81 72 54 47 50 56 42 15 18 18 345 325 314
104 103 99 95 95 99 106 103 101 98 98 99 96 92 94 98 96 93 88 84 88 85 79 70 64 66 58 48 56 71 77 69 46 33 36 42 22 2 6 360 330 312 308
100 99 96 91 89 96 100 97 93 90 92 92 88 84 85 89 91 86 82 85 85 81 76 71 59 54 50 45 47 53 61 55 37 12 354 350 351 352 350 336 302 293 301
100 98 96 87 76 85 97 94 88 86 87 86 83 79 78 84 88 87 82 82 87 83 75 72 58 44 38 39 37 39 43 40 37 355 337 330 338 342 340 334 319 316 315
102 99 101 92 77 73 92 98 94 93 90 84 79 77 75 73 76 85 87 83 81 86 83 78 67 38 23 21 24 26 25 24 21 348 339 341 345 344 343 336 332 333 331
107 106 103 99 90 81 83 92 95 92 90 86 80 77 79 75 68 69 75 84 85 90 89 82 70 40 19 12 8 7 7 7 4 352 347 350 354 353 338 336 339 338 327
106 104 104 101 97 92 86 86 91 96 93 90 89 85 83 87 79 70 61 72 69 98 111 104 97 59 23 356 356 4 360 353 344 342 352 359 352 349 345 340 336 333 331
107 105 102 100 98 94 87 80 84 97 100 94 87 86 86 85 89 88 72 51 61 64 71 78 77 50 27 6 15 16 14 11 8 16 359 348 343 338 334 330 328 327 325
Height
1490 1492 1495 1498 1500 1504 1507 1511 1516 1520 1524 1528 1532 1536 1539 1542 1544 1547 1549 1551 1552 1553 1555 1556 1558 1559 1560 1561 1562 1564 1565 1567 1568 1569 1570 1571 1571 1572 1572 1573 1573 1574 1575
1489 1491 1493 1496 1499 1502 1506 1509 1513 1518 1523 1527 1531 1535 1538 1541 1544 1546 1549 1550 1552 1553 1554 1556 1557 1558 1560 1561 1562 1563 1565 1566 1568 1569 1570 1571 1572 1571 1572 1572 1573 1573 1574
1486 1489 1491 1494 1497 1500 1504 1507 1512 1516 1521 1526 1530 1533 1537 1540 1543 1545 1547 1550 1551 1553 1554 1555 1557 1558 1559 1560 1561 1563 1564 1566 1567 1568 1570 1570 1570 1571 1572 1572 1572 1573 1573
1485 1488 1490 1492 1495 1499 1502 1506 1510 1515 1520 1524 1528 1532 1535 1538 1541 1544 1547 1549 1551 1552 1554 1555 1556 1558 1559 1560 1561 1562 1563 1565 1566 1568 1569 1570 1570 1571 1571 1572 1572 1572 1573
1484 1486 1489 1491 1494 1497 1501 1505 1509 1514 1518 1523 1527 1531 1534 1538 1541 1544 1546 1548 1550 1551 1553 1555 1556 1557 1558 1559 1560 1561 1563 1564 1565 1566 1567 1568 1569 1569 1570 1570 1571 1572 1572
1482 1485 1488 1491 1493 1496 1499 1503 1507 1512 1517 1521 1525 1529 1533 1537 1540 1543 1545 1547 1549 1551 1552 1554 1555 1556 1557 1558 1559 1560 1562 1563 1564 1565 1566 1567 1567 1568 1568 1569 1569 1570 1571
1480 1483 1486 1489 1492 1495 1497 1501 1505 1510 1515 1519 1523 1527 1532 1536 1539 1542 1544 1546 1549 1550 1552 1553 1555 1556 1557 1558 1558 1560 1561 1562 1563 1564 1564 1565 1566 1566 1567 1567 1568 1568 1569
1478 1482 1485 1488 1491 1494 1497 1500 1504 1508 1513 1517 1521 1526 1530 1534 1538 1541 1543 1546 1548 1550 1552 1553 1554 1555 1556 1557 1557 1558 1559 1560 1561 1562 1563 1564 1564 1565 1565 1566 1566 1566 1567
1476 1480 1484 1487 1490 1493 1496 1500 1503 1507 1512 1516 1520 1524 1528 1532 1536 1539 1542 1545 1547 1549 1551 1552 1553 1554 1555 1556 1556 1557 1558 1559 1560 1560 1561 1562 1562 1563 1563 1564 1564 1565 1564
1476 1479 1483 1486 1490 1493 1497 1500 1503 1507 1511 1515 1519 1523 1527 1531 1534 1538 1541 1543 1546 1548 1549 1551 1552 1553 1554 1554 1555 1556 1556 1557 1558 1558 1559 1560 1560 1561 1561 1561 1562 1562 1562
1475 1478 1482 1485 1489 1493 1496 1499 1503 1506 1510 1514 1518 1521 1525 1529 1532 1535 1539 1542 1544 1546 1548 1549 1550 1551 1552 1553 1553 1554 1554 1555 1555 1556 1556 1557 1557 1558 1558 1558 1559 1559 1559
1474 1477 1481 1484 1488 1491 1495 1498 1502 1505 1509 1513 1517 1520 1523 1527 1530 1533 1536 1539 1541 1543 1545 1547 1548 1549 1549 1550 1551 1551 1552 1552 1552 1553 1553 1554 1554 1554 1555 1555 1555 1555 1555
1473 1476 1479 1483 1486 1490 1493 1497 1501 1504 1508 1512 1515 1518 1521 1525 1528 1531 1534 1536 1539 1540 1542 1543 1544 1545 1546 1547 1547 1548 1548 1548 1549 1549 1549 1550 1550 1550 1551 1551 1551 1551 1551
1471 1475 1478 1481 1485 1488 1492 1496 1499 1503 1507 1510 1514 1516 1520 1523 1526 1529 1531 1533 1535 1537 1538 1540 1541 1542 1542 1543 1543 1543 1544 1544 1544 1545 1545 1545 1546 1546 1546 1546 1546 1547 1547
1470 1473 1476 1480 1483 1487 1490 1494 1498 1501 1505 1508 1512 1515 1518 1521 1524 1526 1528 1530 1532 1533 1535 1536 1537 1538 1538 1539 1539 1539 1539 1540 1540 1540 1540 1541 1541 1541 1542 1542 1542 1542 1541
1468 1472 1475 1478 1481 1485 1488 1492 1496 1500 1503 1507 1510 1513 1516 1519 1521 1523 1526 1527 1528 1530 1531 1531 1532 1533 1533 1534 1534 1534 1534 1535 1535 1535 1535 1535 1535 1536 1536 1536 1536 1536 1536
1468 1471 1474 1477 1480 1484 1487 1490 1494 1498 1501 1504 1508 1511 1514 1516 1519 1521 1522 1524 1525 1526 1527 1527 1528 1528 1529 1529 1529 1529 1529 1529 1529 1529 1529 1529 1529 1530 1530 1530 1530 1529 1529
1467 1470 1474 1477 1480 1483 1487 1490 1493 1497 1500 1502 1506 1509 1511 1514 1516 1518 1519 1521 1522 1523 1523 1523 1524 1524 1524 1524 1524 1524 1524 1524 1524 1524 1524 1524 1524 1524 1523 1523 1523 1523 1523
1467 1470 1474 1477 1480 1483 1486 1489 1492 1495 1498 1501 1504 1507 1510 1512 1514 1516 1517 1518 1519 1519 1520 1520 1521 1521 1521 1521 1521 1521 1520 1520 1520 1519 1519 1519 1519 1518 1518 1517 1516 1516 1516
1467 1471 1475 1478 1480 1483 1486 1489 1492 1495 1498 1501 1504 1507 1509 1512 1513 1514 1515 1516 1517 1517 1518 1518 1519 1518 1518 1518 1518 1518 1518 1517 1517 1516 1516 1515 1514 1513 1512 1510 1510 1509 1508
1469 1472 1476 1479 1482 1485 1488 1490 1493 1497 1500 1503 1505 1507 1510 1512 1513 1514 1515 1516 1516 1517 1518 1518 1518 1518 1517 1517 1517 1516 1515 1515 1514 1513 1512 1511 1510 1509 1507 1505 1504 1502 1501
1472 1475 1478 1481 1485 1489 1491 1493 1496 1499 1503 1505 1507 1509 1511 1512 1514 1515 1516 1516 1517 1517 1517 1518 1518 1517 1517 1516 1515 1514 1513 1512 1512 1510 1509 1508 1506 1504 1502 1501 1499 1497 1495
1474 1478 1481 1484 1489 1493 1495 1496 1500 1503 1505 1507 1509 1511 1513 1514 1515 1516 1516 1516 1517 1517 1517 1517 1517 1517 1516 1515 1514 1513 1511 1510 1509 1507 1506 1504 1502 1500 1498 1496 1494 1492 1490
1477 1482 1485 1487 1492 1496 1499 1501 1504 1506 1508 1509 1511 1513 1514 1515 1516 1517 1517 1517 1517 1517 1517 1517 1516 1516 1515 1514 1512 1511 1509 1508 1506 1504 1502 1500 1498 1496 1494 1492 1489 1487 1485
1481 1485 1488 1491 1496 1500 1502 1505 1507 1510 1511 1512 1514 1515 1516 1517 1517 1518 1518 1518 1518 1518 1517 1516 1515 1514 1513 1512 1510 1508 1506 1504 1503 1501 1499 1496 1494 1491 1489 1487 1485 1482 1480
1485 1489 1493 1496 1500 1503 1505 1508 1511 1513 1513 1514 1515 1517 1517 1518 1518 1518 1518 1518 1518 1517 1516 1515 1514 1513 1512 1510 1508 1506 1504 1502 1500 1498 1495 1492 1490 1487 1484 1482 1479 1477 1474